LAN3201 SABE-SBSP

Flight info

Callsign LAN3201
Flight time 2h 6m
Altitude 37000
Route DORVO8 DORVO UN857 ITBEB UM540 ANISE
Aircraft A320/M-SDE3FGHIRWY/LB1

Departure

Time 2026-05-05 15:57
Airport Aeroparque Jorge Newbery (SABE)

Arrival

Time 2026-05-05 18:03
Airport Congonhas–Deputado Freitas Nobre Airport (SBSP)
Time Latitude Longitude Altitude Speed Heading
2026-05-05 15:41 -34.55804 -58.41246 27 ft 0 kts 39°
2026-05-05 15:46 -34.55818 -58.41259 27 ft 4 kts 24°
2026-05-05 15:46 -34.55841 -58.41262 27 ft 4 kts 322°
2026-05-05 15:47 -34.55849 -58.41254 27 ft 0 kts 302°
2026-05-05 15:49 -34.55844 -58.41263 27 ft 6 kts 302°
2026-05-05 15:50 -34.55816 -58.41315 27 ft 7 kts 303°
2026-05-05 15:50 -34.55792 -58.41360 27 ft 6 kts 303°
2026-05-05 15:50 -34.55771 -58.41399 27 ft 5 kts 303°
2026-05-05 15:50 -34.55753 -58.41432 27 ft 4 kts 303°
2026-05-05 15:51 -34.55738 -58.41458 27 ft 5 kts 304°
2026-05-05 15:51 -34.55726 -58.41519 27 ft 8 kts 258°
2026-05-05 15:51 -34.55755 -58.41564 27 ft 6 kts 218°
2026-05-05 15:51 -34.55784 -58.41597 27 ft 6 kts 240°
2026-05-05 15:52 -34.55777 -58.41664 26 ft 9 kts 295°
2026-05-05 15:52 -34.55749 -58.41724 32 ft 8 kts 300°
2026-05-05 15:52 -34.55724 -58.41777 28 ft 7 kts 303°
2026-05-05 15:52 -34.55686 -58.41843 26 ft 11 kts 305°
2026-05-05 15:53 -34.55646 -58.41912 27 ft 9 kts 304°
2026-05-05 15:53 -34.55614 -58.41971 27 ft 8 kts 304°
2026-05-05 15:53 -34.55584 -58.42023 27 ft 10 kts 305°
2026-05-05 15:53 -34.55545 -58.42086 27 ft 9 kts 307°
2026-05-05 15:54 -34.55505 -58.42152 27 ft 13 kts 307°
2026-05-05 15:54 -34.55455 -58.42230 27 ft 11 kts 307°
2026-05-05 15:54 -34.55412 -58.42300 27 ft 10 kts 307°
2026-05-05 15:54 -34.55373 -58.42364 27 ft 9 kts 301°
2026-05-05 15:55 -34.55360 -58.42432 27 ft 8 kts 278°
2026-05-05 15:55 -34.55361 -58.42492 27 ft 6 kts 253°
2026-05-05 15:55 -34.55389 -58.42515 27 ft 4 kts 187°
2026-05-05 15:55 -34.55407 -58.42503 27 ft 2 kts 136°
2026-05-05 15:56 -34.55410 -58.42497 27 ft 0 kts 122°
2026-05-05 15:56 -34.55553 -58.42241 28 ft 75 kts 124°
2026-05-05 15:56 -34.55971 -58.41487 28 ft 137 kts 124°
2026-05-05 15:57 -34.56575 -58.40407 302 ft 162 kts 124°
2026-05-05 15:57 -34.57206 -58.39272 1001 ft 164 kts 123°
2026-05-05 15:57 -34.57663 -58.38012 1692 ft 165 kts 96°
2026-05-05 15:57 -34.57463 -58.36654 2295 ft 171 kts 57°
2026-05-05 15:58 -34.56578 -58.35602 2641 ft 189 kts 26°
2026-05-05 15:58 -34.55355 -58.34790 2921 ft 212 kts 27°
2026-05-05 15:58 -34.54025 -58.33850 3279 ft 232 kts 28°
2026-05-05 15:58 -34.52659 -58.32619 3666 ft 261 kts 49°
2026-05-05 15:59 -34.51969 -58.30520 4335 ft 282 kts 83°
2026-05-05 15:59 -34.52145 -58.28106 5106 ft 294 kts 101°
2026-05-05 15:59 -34.52741 -58.25700 5925 ft 302 kts 108°
2026-05-05 15:59 -34.53484 -58.23295 6742 ft 308 kts 110°
2026-05-05 16:00 -34.54267 -58.20862 7571 ft 312 kts 110°
2026-05-05 16:00 -34.55029 -58.18385 8396 ft 315 kts 109°
2026-05-05 16:00 -34.55751 -58.15858 9239 ft 319 kts 109°
2026-05-05 16:00 -34.56440 -58.13278 10022 ft 324 kts 108°
2026-05-05 16:01 -34.57133 -58.10569 10416 ft 343 kts 107°
2026-05-05 16:01 -34.57846 -58.07718 10706 ft 362 kts 107°
2026-05-05 16:01 -34.58577 -58.04750 11308 ft 370 kts 107°
2026-05-05 16:01 -34.59318 -58.01740 11988 ft 375 kts 107°
2026-05-05 16:02 -34.60067 -57.98697 12675 ft 380 kts 107°
2026-05-05 16:02 -34.60829 -57.95603 13366 ft 384 kts 106°
2026-05-05 16:02 -34.61599 -57.92477 14020 ft 389 kts 106°
2026-05-05 16:02 -34.62379 -57.89323 14616 ft 393 kts 106°
2026-05-05 16:03 -34.63168 -57.86127 15242 ft 397 kts 107°
2026-05-05 16:03 -34.63966 -57.82892 15873 ft 401 kts 107°
2026-05-05 16:03 -34.64771 -57.79633 16509 ft 405 kts 107°
2026-05-05 16:03 -34.65582 -57.76346 17105 ft 409 kts 107°
2026-05-05 16:04 -34.66403 -57.73009 17705 ft 414 kts 107°
2026-05-05 16:04 -34.67230 -57.69645 18300 ft 418 kts 107°
2026-05-05 16:04 -34.68062 -57.66253 18824 ft 422 kts 107°
2026-05-05 16:04 -34.68902 -57.62822 19358 ft 425 kts 107°
2026-05-05 16:05 -34.69683 -57.59337 19878 ft 429 kts 101°
2026-05-05 16:05 -34.69960 -57.55720 20379 ft 432 kts 88°
2026-05-05 16:05 -34.69616 -57.52048 20888 ft 433 kts 75°
2026-05-05 16:05 -34.68684 -57.48577 21370 ft 432 kts 62°
2026-05-05 16:06 -34.67208 -57.45415 21846 ft 430 kts 49°
2026-05-05 16:06 -34.65333 -57.42596 22327 ft 430 kts 45°
2026-05-05 16:06 -34.63403 -57.39803 22813 ft 434 kts 45°
2026-05-05 16:06 -34.61456 -57.36988 23285 ft 437 kts 45°
2026-05-05 16:07 -34.59492 -57.34146 23716 ft 441 kts 45°
2026-05-05 16:07 -34.57519 -57.31282 24101 ft 444 kts 45°
2026-05-05 16:07 -34.55534 -57.28399 24493 ft 447 kts 45°
2026-05-05 16:07 -34.53532 -57.25501 24859 ft 450 kts 45°
2026-05-05 16:08 -34.51515 -57.22586 25245 ft 453 kts 45°
2026-05-05 16:08 -34.49483 -57.19653 25615 ft 455 kts 45°
2026-05-05 16:08 -34.47439 -57.16705 25993 ft 458 kts 45°
2026-05-05 16:08 -34.45381 -57.13740 26346 ft 461 kts 45°
2026-05-05 16:09 -34.43309 -57.10763 26701 ft 464 kts 45°
2026-05-05 16:09 -34.41221 -57.07766 27071 ft 467 kts 45°
2026-05-05 16:09 -34.39120 -57.04750 27423 ft 470 kts 45°
2026-05-05 16:09 -34.37004 -57.01717 27769 ft 473 kts 45°
2026-05-05 16:10 -34.34844 -56.98623 28121 ft 476 kts 45°
2026-05-05 16:10 -34.32702 -56.95556 28461 ft 479 kts 45°
2026-05-05 16:10 -34.30551 -56.92473 28796 ft 481 kts 45°
2026-05-05 16:10 -34.28381 -56.89368 29130 ft 484 kts 45°
2026-05-05 16:11 -34.26201 -56.86248 29464 ft 487 kts 45°
2026-05-05 16:11 -34.19589 -56.76802 30364 ft 495 kts 45°
2026-05-05 16:12 -34.17358 -56.73624 30628 ft 497 kts 45°
2026-05-05 16:12 -34.12851 -56.67234 31127 ft 502 kts 45°
2026-05-05 16:13 -34.06029 -56.57585 32033 ft 504 kts 45°
2026-05-05 16:13 -34.03761 -56.54368 32373 ft 504 kts 45°
2026-05-05 16:13 -34.01489 -56.51148 32697 ft 504 kts 45°
2026-05-05 16:14 -33.96935 -56.44709 33356 ft 505 kts 45°
2026-05-05 16:14 -33.92377 -56.38277 34001 ft 505 kts 45°
2026-05-05 16:15 -33.87800 -56.31849 34552 ft 506 kts 45°
2026-05-05 16:15 -33.83174 -56.25396 35103 ft 505 kts 45°
2026-05-05 16:16 -33.78578 -56.19007 35616 ft 505 kts 45°
2026-05-05 16:16 -33.74763 -56.13676 36016 ft 506 kts 45°
2026-05-05 16:17 -33.70184 -56.07255 36477 ft 506 kts 45°
2026-05-05 16:17 -33.67891 -56.04045 36710 ft 506 kts 45°
2026-05-05 16:18 -33.63297 -55.97640 37023 ft 506 kts 45°
2026-05-05 16:18 -33.61001 -55.94445 37037 ft 505 kts 45°
2026-05-05 16:19 -33.54127 -55.84888 37042 ft 504 kts 45°
2026-05-05 16:19 -33.47214 -55.75299 37042 ft 505 kts 45°
2026-05-05 16:20 -33.37997 -55.62569 37038 ft 506 kts 45°
2026-05-05 16:22 -33.26448 -55.46680 37034 ft 507 kts 45°
2026-05-05 16:23 -33.17187 -55.33974 37038 ft 507 kts 45°
2026-05-05 16:23 -33.10217 -55.24456 37040 ft 508 kts 45°
2026-05-05 16:24 -33.05570 -55.18110 37040 ft 508 kts 45°
2026-05-05 16:25 -32.98558 -55.08559 37043 ft 508 kts 45°
2026-05-05 16:25 -32.91553 -54.99072 37042 ft 508 kts 45°
2026-05-05 16:26 -32.82215 -54.86429 37047 ft 508 kts 45°
2026-05-05 16:27 -32.77542 -54.80117 37047 ft 508 kts 45°
2026-05-05 16:27 -32.72867 -54.73825 37053 ft 508 kts 45°
2026-05-05 16:28 -32.68186 -54.67533 37050 ft 508 kts 45°
2026-05-05 16:28 -32.63515 -54.61249 37052 ft 508 kts 45°
2026-05-05 16:29 -32.58840 -54.54974 37050 ft 507 kts 45°
2026-05-05 16:29 -32.54125 -54.48673 37055 ft 507 kts 45°
2026-05-05 16:30 -32.49433 -54.42423 37054 ft 507 kts 45°
2026-05-05 16:30 -32.44758 -54.36184 37056 ft 507 kts 45°
2026-05-05 16:31 -32.40087 -54.29948 37053 ft 506 kts 45°
2026-05-05 16:31 -32.35404 -54.23718 37055 ft 506 kts 45°
2026-05-05 16:32 -32.30738 -54.17493 37053 ft 506 kts 46°
2026-05-05 16:32 -32.26121 -54.11211 37057 ft 506 kts 46°
2026-05-05 16:33 -32.21524 -54.04929 37058 ft 506 kts 46°
2026-05-05 16:33 -32.16897 -53.98678 37063 ft 505 kts 46°
2026-05-05 16:34 -32.12258 -53.92451 37064 ft 505 kts 46°
2026-05-05 16:34 -32.07621 -53.86219 37066 ft 505 kts 46°
2026-05-05 16:35 -32.02990 -53.79993 37065 ft 505 kts 46°
2026-05-05 16:35 -31.98333 -53.73739 36913 ft 503 kts 44°
2026-05-05 16:36 -31.96038 -53.70662 37077 ft 499 kts 45°
2026-05-05 16:36 -31.93745 -53.67595 37087 ft 499 kts 44°
2026-05-05 16:36 -31.89156 -53.61470 37089 ft 498 kts 44°
2026-05-05 16:37 -31.84577 -53.55359 37090 ft 497 kts 45°
2026-05-05 16:37 -31.80004 -53.49269 37087 ft 496 kts 45°
2026-05-05 16:38 -31.75437 -53.43193 37081 ft 496 kts 45°
2026-05-05 16:38 -31.70865 -53.37118 37076 ft 496 kts 45°
2026-05-05 16:39 -31.66287 -53.31055 37076 ft 496 kts 45°
2026-05-05 16:39 -31.61706 -53.25005 37073 ft 496 kts 45°
2026-05-05 16:40 -31.57130 -53.18954 37070 ft 496 kts 45°
2026-05-05 16:40 -31.52548 -53.12916 37072 ft 496 kts 45°
2026-05-05 16:41 -31.47930 -53.06849 37070 ft 496 kts 45°
2026-05-05 16:41 -31.43345 -53.00814 37074 ft 496 kts 45°
2026-05-05 16:42 -31.38754 -52.94788 37074 ft 496 kts 45°
2026-05-05 16:42 -31.34155 -52.88775 37081 ft 496 kts 45°
2026-05-05 16:43 -31.29557 -52.82757 37078 ft 496 kts 45°
2026-05-05 16:43 -31.24960 -52.76739 37089 ft 496 kts 45°
2026-05-05 16:44 -31.20358 -52.70724 37070 ft 496 kts 45°
2026-05-05 16:44 -31.15748 -52.64722 37071 ft 497 kts 45°
2026-05-05 16:45 -31.11125 -52.58723 37079 ft 497 kts 45°
2026-05-05 16:45 -31.06506 -52.52733 37084 ft 497 kts 45°
2026-05-05 16:46 -31.01886 -52.46731 37077 ft 497 kts 45°
2026-05-05 16:46 -30.97232 -52.40698 37075 ft 497 kts 45°
2026-05-05 16:47 -30.92603 -52.34714 37073 ft 497 kts 45°
2026-05-05 16:47 -30.87962 -52.28740 37078 ft 497 kts 44°
2026-05-05 16:48 -30.83261 -52.22853 37069 ft 496 kts 44°
2026-05-05 16:48 -30.79329 -52.17999 37067 ft 496 kts 44°
2026-05-05 16:49 -30.74609 -52.12149 37068 ft 496 kts 44°
2026-05-05 16:49 -30.69869 -52.06246 37074 ft 496 kts 44°
2026-05-05 16:50 -30.65165 -52.00383 37076 ft 496 kts 44°
2026-05-05 16:50 -30.60453 -51.94530 37079 ft 496 kts 44°
2026-05-05 16:51 -30.55737 -51.88685 37077 ft 496 kts 44°
2026-05-05 16:51 -30.51019 -51.82847 37082 ft 496 kts 44°
2026-05-05 16:52 -30.46301 -51.77021 37082 ft 496 kts 44°
2026-05-05 16:52 -30.41614 -51.71157 37086 ft 496 kts 45°
2026-05-05 16:53 -30.37048 -51.65156 37089 ft 497 kts 46°
2026-05-05 16:53 -30.32501 -51.59127 37093 ft 497 kts 46°
2026-05-05 16:54 -30.27925 -51.53145 37094 ft 496 kts 46°
2026-05-05 16:54 -30.23325 -51.47182 37092 ft 496 kts 46°
2026-05-05 16:55 -30.18695 -51.41196 37093 ft 496 kts 46°
2026-05-05 16:55 -30.14098 -51.35244 37094 ft 496 kts 46°
2026-05-05 16:56 -30.09504 -51.29298 37093 ft 496 kts 46°
2026-05-05 16:56 -30.04907 -51.23363 37087 ft 496 kts 46°
2026-05-05 16:57 -30.00316 -51.17436 37087 ft 496 kts 46°
2026-05-05 16:57 -29.95715 -51.11511 37090 ft 496 kts 46°
2026-05-05 16:58 -29.91105 -51.05607 37088 ft 495 kts 45°
2026-05-05 16:58 -29.86490 -50.99712 37091 ft 495 kts 45°
2026-05-05 16:59 -29.81876 -50.93819 37092 ft 495 kts 45°
2026-05-05 16:59 -29.77258 -50.87933 37096 ft 495 kts 45°
2026-05-05 17:00 -29.72642 -50.82050 37100 ft 495 kts 45°
2026-05-05 17:00 -29.67992 -50.76130 37099 ft 495 kts 45°
2026-05-05 17:01 -29.63369 -50.70265 37101 ft 495 kts 45°
2026-05-05 17:01 -29.58738 -50.64408 37112 ft 495 kts 45°
2026-05-05 17:02 -29.54115 -50.58554 37116 ft 495 kts 45°
2026-05-05 17:02 -29.48936 -50.53449 37120 ft 490 kts 33°
2026-05-05 17:03 -29.43475 -50.48769 37123 ft 490 kts 33°
2026-05-05 17:03 -29.38028 -50.44079 37127 ft 490 kts 33°
2026-05-05 17:04 -29.32571 -50.39387 37131 ft 490 kts 33°
2026-05-05 17:04 -29.27105 -50.34708 37140 ft 491 kts 33°
2026-05-05 17:05 -29.21629 -50.30037 37139 ft 491 kts 33°
2026-05-05 17:05 -29.16161 -50.25368 37147 ft 491 kts 33°
2026-05-05 17:06 -29.10650 -50.20656 37150 ft 491 kts 33°
2026-05-05 17:06 -29.05215 -50.16022 37155 ft 491 kts 33°
2026-05-05 17:07 -28.99708 -50.11341 37156 ft 490 kts 33°
2026-05-05 17:07 -28.94238 -50.06695 37152 ft 490 kts 33°
2026-05-05 17:08 -28.88771 -50.02054 37147 ft 490 kts 33°
2026-05-05 17:08 -28.83298 -49.97416 37156 ft 490 kts 33°
2026-05-05 17:09 -28.77830 -49.92797 37158 ft 490 kts 33°
2026-05-05 17:09 -28.72356 -49.88171 37153 ft 489 kts 33°
2026-05-05 17:10 -28.66897 -49.83549 37151 ft 489 kts 34°
2026-05-05 17:10 -28.61434 -49.78941 37141 ft 488 kts 33°
2026-05-05 17:11 -28.55966 -49.74349 37142 ft 489 kts 33°
2026-05-05 17:11 -28.50459 -49.69713 37147 ft 489 kts 33°
2026-05-05 17:12 -28.44994 -49.65123 37160 ft 489 kts 33°
2026-05-05 17:12 -28.39513 -49.60529 37158 ft 489 kts 33°
2026-05-05 17:13 -28.34039 -49.55945 37157 ft 489 kts 33°
2026-05-05 17:13 -28.28560 -49.51352 37158 ft 491 kts 33°
2026-05-05 17:14 -28.23070 -49.46770 37146 ft 489 kts 33°
2026-05-05 17:14 -28.17581 -49.42199 37154 ft 489 kts 33°
2026-05-05 17:15 -28.12101 -49.37637 37159 ft 489 kts 33°
2026-05-05 17:15 -28.06623 -49.33068 37155 ft 489 kts 34°
2026-05-05 17:16 -28.01184 -49.28439 37158 ft 489 kts 34°
2026-05-05 17:16 -27.95769 -49.23799 37166 ft 488 kts 34°
2026-05-05 17:17 -27.90345 -49.19181 37164 ft 488 kts 34°
2026-05-05 17:17 -27.84854 -49.14587 37162 ft 487 kts 33°
2026-05-05 17:18 -27.79329 -49.10173 37168 ft 486 kts 32°
2026-05-05 17:18 -27.73788 -49.05794 37170 ft 486 kts 32°
2026-05-05 17:19 -27.68274 -49.01387 37168 ft 486 kts 33°
2026-05-05 17:19 -27.62812 -48.96900 37161 ft 486 kts 33°
2026-05-05 17:20 -27.58294 -48.93145 37157 ft 485 kts 33°
2026-05-05 17:20 -27.52858 -48.88644 37147 ft 484 kts 33°
2026-05-05 17:21 -27.47375 -48.84148 37152 ft 484 kts 33°
2026-05-05 17:22 -27.39217 -48.77468 37142 ft 483 kts 33°
2026-05-05 17:22 -27.33783 -48.73024 37139 ft 483 kts 33°
2026-05-05 17:23 -27.28346 -48.68577 37141 ft 483 kts 33°
2026-05-05 17:23 -27.22927 -48.64120 37140 ft 483 kts 34°
2026-05-05 17:24 -27.17544 -48.59583 37133 ft 484 kts 34°
2026-05-05 17:24 -27.12125 -48.55100 37139 ft 483 kts 33°
2026-05-05 17:25 -27.06656 -48.50712 37145 ft 483 kts 33°
2026-05-05 17:25 -27.01178 -48.46335 37138 ft 483 kts 33°
2026-05-05 17:26 -26.95711 -48.41942 37137 ft 484 kts 33°
2026-05-05 17:26 -26.90248 -48.37537 37143 ft 484 kts 33°
2026-05-05 17:27 -26.84742 -48.33100 37135 ft 484 kts 33°
2026-05-05 17:27 -26.79271 -48.28709 37152 ft 484 kts 33°
2026-05-05 17:28 -26.73790 -48.24322 37150 ft 484 kts 33°
2026-05-05 17:28 -26.68311 -48.19920 37144 ft 484 kts 33°
2026-05-05 17:29 -26.62854 -48.15512 37157 ft 484 kts 33°
2026-05-05 17:29 -26.57385 -48.11107 37159 ft 484 kts 33°
2026-05-05 17:30 -26.51912 -48.06717 37142 ft 484 kts 33°
2026-05-05 17:30 -26.46440 -48.02334 37142 ft 484 kts 33°
2026-05-05 17:31 -26.40971 -47.97949 37136 ft 484 kts 33°
2026-05-05 17:31 -26.35466 -47.93539 37145 ft 484 kts 33°
2026-05-05 17:32 -26.29990 -47.89161 37144 ft 484 kts 33°
2026-05-05 17:32 -26.24508 -47.84788 37155 ft 485 kts 33°
2026-05-05 17:33 -26.19023 -47.80416 37148 ft 485 kts 33°
2026-05-05 17:33 -26.13536 -47.76054 37145 ft 485 kts 33°
2026-05-05 17:34 -26.08060 -47.71696 37155 ft 484 kts 33°
2026-05-05 17:34 -26.02571 -47.67328 37159 ft 485 kts 33°
2026-05-05 17:35 -25.97081 -47.62978 37159 ft 485 kts 33°
2026-05-05 17:35 -25.91599 -47.58633 37163 ft 485 kts 33°
2026-05-05 17:36 -25.86071 -47.54245 37163 ft 485 kts 33°
2026-05-05 17:36 -25.83321 -47.52069 36996 ft 486 kts 33°
2026-05-05 17:36 -25.80574 -47.49899 36733 ft 484 kts 33°
2026-05-05 17:36 -25.77828 -47.47736 36478 ft 483 kts 33°
2026-05-05 17:37 -25.75088 -47.45577 36227 ft 483 kts 33°
2026-05-05 17:37 -25.73280 -47.44150 36062 ft 482 kts 33°
2026-05-05 17:37 -25.69635 -47.41268 35732 ft 479 kts 33°
2026-05-05 17:37 -25.66927 -47.39131 35491 ft 477 kts 33°
2026-05-05 17:38 -25.64233 -47.37008 35246 ft 474 kts 33°
2026-05-05 17:38 -25.61550 -47.34901 35004 ft 471 kts 33°
2026-05-05 17:38 -25.58880 -47.32809 34769 ft 469 kts 33°
2026-05-05 17:38 -25.56229 -47.30730 34531 ft 466 kts 33°
2026-05-05 17:39 -25.53589 -47.28655 34291 ft 464 kts 33°
2026-05-05 17:39 -25.50961 -47.26585 34043 ft 462 kts 33°
2026-05-05 17:39 -25.48351 -47.24529 33793 ft 459 kts 33°
2026-05-05 17:39 -25.45759 -47.22490 33523 ft 457 kts 33°
2026-05-05 17:40 -25.43175 -47.20463 33256 ft 454 kts 33°
2026-05-05 17:40 -25.40601 -47.18448 32995 ft 452 kts 33°
2026-05-05 17:40 -25.38012 -47.16419 32529 ft 448 kts 33°
2026-05-05 17:40 -25.35471 -47.14431 31983 ft 447 kts 33°
2026-05-05 17:41 -25.32940 -47.12451 31457 ft 445 kts 33°
2026-05-05 17:41 -25.30419 -47.10483 30931 ft 443 kts 33°
2026-05-05 17:41 -25.27910 -47.08524 30424 ft 441 kts 33°
2026-05-05 17:41 -25.25415 -47.06573 29874 ft 438 kts 33°
2026-05-05 17:42 -25.22940 -47.04638 29392 ft 433 kts 33°
2026-05-05 17:42 -25.20493 -47.02726 28909 ft 429 kts 33°
2026-05-05 17:42 -25.18074 -47.00837 28448 ft 424 kts 33°
2026-05-05 17:42 -25.15677 -46.98969 27993 ft 419 kts 33°
2026-05-05 17:43 -25.13291 -46.97151 27548 ft 414 kts 32°
2026-05-05 17:43 -25.10871 -46.95459 27123 ft 409 kts 30°
2026-05-05 17:43 -25.08435 -46.93865 26669 ft 405 kts 28°
2026-05-05 17:43 -25.06001 -46.92322 26230 ft 402 kts 28°
2026-05-05 17:44 -25.03585 -46.90799 25774 ft 399 kts 28°
2026-05-05 17:44 -25.01189 -46.89276 25316 ft 396 kts 29°
2026-05-05 17:44 -24.98815 -46.87745 24854 ft 394 kts 29°
2026-05-05 17:44 -24.96456 -46.86210 24379 ft 393 kts 30°
2026-05-05 17:45 -24.94083 -46.84657 23892 ft 391 kts 30°
2026-05-05 17:45 -24.91748 -46.83122 23370 ft 390 kts 30°
2026-05-05 17:45 -24.89426 -46.81598 22895 ft 387 kts 30°
2026-05-05 17:45 -24.87122 -46.80090 22440 ft 384 kts 30°
2026-05-05 17:46 -24.84831 -46.78592 21988 ft 381 kts 30°
2026-05-05 17:46 -24.82558 -46.77108 21539 ft 379 kts 30°
2026-05-05 17:46 -24.80301 -46.75632 21094 ft 376 kts 30°
2026-05-05 17:46 -24.78056 -46.74163 20664 ft 374 kts 30°
2026-05-05 17:47 -24.75828 -46.72704 20217 ft 373 kts 30°
2026-05-05 17:47 -24.73603 -46.71250 19781 ft 371 kts 30°
2026-05-05 17:47 -24.71386 -46.69808 19349 ft 370 kts 30°
2026-05-05 17:47 -24.69171 -46.68370 18919 ft 368 kts 30°
2026-05-05 17:48 -24.66971 -46.66940 18491 ft 367 kts 31°
2026-05-05 17:48 -24.64777 -46.65511 18016 ft 365 kts 31°
2026-05-05 17:48 -24.62597 -46.64097 17598 ft 362 kts 29°
2026-05-05 17:48 -24.60297 -46.63014 17180 ft 359 kts 15°
2026-05-05 17:49 -24.57860 -46.62564 16815 ft 354 kts
2026-05-05 17:49 -24.55412 -46.62551 16468 ft 349 kts 359°
2026-05-05 17:49 -24.52992 -46.62552 16117 ft 346 kts 359°
2026-05-05 17:49 -24.50598 -46.62550 15773 ft 343 kts 359°
2026-05-05 17:50 -24.48226 -46.62546 15424 ft 340 kts 359°
2026-05-05 17:50 -24.45866 -46.62544 15082 ft 337 kts 359°
2026-05-05 17:50 -24.43533 -46.62543 14751 ft 334 kts 359°
2026-05-05 17:50 -24.41214 -46.62545 14429 ft 332 kts 359°
2026-05-05 17:51 -24.39658 -46.62548 14205 ft 330 kts 359°
2026-05-05 17:51 -24.37367 -46.62551 13835 ft 329 kts 360°
2026-05-05 17:51 -24.35086 -46.62553 13436 ft 326 kts 359°
2026-05-05 17:51 -24.32824 -46.62557 13094 ft 324 kts 359°
2026-05-05 17:52 -24.30581 -46.62562 12739 ft 321 kts 359°
2026-05-05 17:52 -24.28356 -46.62565 12380 ft 319 kts 359°
2026-05-05 17:52 -24.26148 -46.62568 12020 ft 316 kts 359°
2026-05-05 17:52 -24.23957 -46.62568 11692 ft 314 kts 360°
2026-05-05 17:53 -24.21782 -46.62566 11348 ft 312 kts 360°
2026-05-05 17:53 -24.19621 -46.62566 11003 ft 309 kts 360°
2026-05-05 17:53 -24.17474 -46.62566 10666 ft 307 kts 360°
2026-05-05 17:53 -24.15339 -46.62566 10325 ft 306 kts 360°
2026-05-05 17:54 -24.13224 -46.62566 9992 ft 303 kts 360°
2026-05-05 17:54 -24.11118 -46.62567 9634 ft 301 kts 360°
2026-05-05 17:54 -24.09035 -46.62570 9300 ft 298 kts 359°
2026-05-05 17:54 -24.06943 -46.62572 8962 ft 296 kts 359°
2026-05-05 17:55 -24.04918 -46.62573 8647 ft 294 kts 359°
2026-05-05 17:55 -24.02852 -46.62574 8250 ft 293 kts 359°
2026-05-05 17:55 -24.00798 -46.62576 7816 ft 294 kts 359°
2026-05-05 17:55 -23.98765 -46.62576 7428 ft 290 kts 360°
2026-05-05 17:56 -23.96964 -46.62577 7127 ft 287 kts 360°
2026-05-05 17:56 -23.94908 -46.62579 6791 ft 285 kts 359°
2026-05-05 17:56 -23.92933 -46.62582 6512 ft 283 kts 359°
2026-05-05 17:56 -23.90975 -46.62583 6219 ft 279 kts 360°
2026-05-05 17:57 -23.89079 -46.62583 6107 ft 266 kts 360°
2026-05-05 17:57 -23.87271 -46.62527 5970 ft 254 kts
2026-05-05 17:57 -23.85637 -46.61937 5820 ft 246 kts 29°
2026-05-05 17:57 -23.84316 -46.60783 5545 ft 243 kts 50°
2026-05-05 17:58 -23.83268 -46.59341 5303 ft 240 kts 52°
2026-05-05 17:58 -23.82260 -46.57944 5264 ft 229 kts 52°
2026-05-05 17:58 -23.81186 -46.56693 5273 ft 224 kts 37°
2026-05-05 17:58 -23.79822 -46.55894 5272 ft 222 kts 18°
2026-05-05 17:59 -23.78421 -46.55640 5282 ft 215 kts 359°
2026-05-05 17:59 -23.76960 -46.55898 5237 ft 212 kts 340°
2026-05-05 17:59 -23.75659 -46.56640 5233 ft 211 kts 327°
2026-05-05 17:59 -23.74431 -46.57493 5060 ft 208 kts 327°
2026-05-05 18:00 -23.73218 -46.58336 4832 ft 202 kts 327°
2026-05-05 18:00 -23.72082 -46.59124 4583 ft 186 kts 327°
2026-05-05 18:00 -23.71044 -46.59844 4351 ft 169 kts 327°
2026-05-05 18:00 -23.70093 -46.60502 4138 ft 157 kts 327°
2026-05-05 18:01 -23.69189 -46.61129 3945 ft 152 kts 327°
2026-05-05 18:01 -23.68308 -46.61739 3763 ft 149 kts 328°
2026-05-05 18:01 -23.67432 -46.62339 3567 ft 149 kts 328°
2026-05-05 18:01 -23.66567 -46.62953 3370 ft 148 kts 325°
2026-05-05 18:02 -23.65704 -46.63556 3214 ft 148 kts 327°
2026-05-05 18:02 -23.64829 -46.64159 2956 ft 149 kts 329°
2026-05-05 18:02 -23.63954 -46.64767 2776 ft 147 kts 328°
2026-05-05 18:02 -23.63093 -46.65358 2625 ft 141 kts 327°
2026-05-05 18:03 -23.62459 -46.65791 2614 ft 66 kts 327°
2026-05-05 18:03 -23.62276 -46.65920 2610 ft 19 kts 326°
2026-05-05 18:03 -23.62196 -46.65991 2608 ft 9 kts 292°
2026-05-05 18:03 -23.62220 -46.66039 2609 ft 7 kts 197°
2026-05-05 18:04 -23.62257 -46.66043 2609 ft 4 kts 181°
2026-05-05 18:04 -23.62293 -46.66039 2600 ft 7 kts 171°
2026-05-05 18:04 -23.62335 -46.66028 2600 ft 5 kts 161°
2026-05-05 18:04 -23.62363 -46.66011 2600 ft 4 kts 147°
2026-05-05 18:05 -23.62386 -46.65995 2600 ft 7 kts 147°
2026-05-05 18:05 -23.62443 -46.65957 2600 ft 10 kts 148°
2026-05-05 18:05 -23.62488 -46.65934 2601 ft 5 kts 187°
2026-05-05 18:05 -23.62505 -46.65956 2600 ft 2 kts 237°
2026-05-05 18:06 -23.62509 -46.65964 2600 ft 0 kts 237°